Time,TemperatureF,DewpointF,PressureIn,WindDirection,WindDirectionDegrees,WindSpeedMPH,WindSpeedGustMPH,Humidity,HourlyPrecipIn,Conditions,Clouds,dailyrainin,SoftwareType,DateUTC
2013-05-23 00:30:00,45.9,43.0,29.99,ENE,71,0.0,-999.0,89,-99.99,,,0.00,weatherlink.com 1.10,2013-05-23 05:30:00,
2013-05-23 00:45:00,45.7,43.0,29.99,ENE,74,0.0,-999.0,90,-99.99,,,0.00,weatherlink.com 1.10,2013-05-23 05:45:00,
2013-05-23 01:00:00,45.5,43.0,30.01,ENE,74,0.0,-999.0,91,-99.99,,,0.00,weatherlink.com 1.10,2013-05-23 06:00:00,
2013-05-23 01:15:00,45.5,43.0,30.01,NNW,328,0.0,-999.0,92,-99.99,,,0.00,weatherlink.com 1.10,2013-05-23 06:15:00,
2013-05-23 01:30:00,45.3,43.0,30.01,NNW,333,0.0,-999.0,91,-99.99,,,0.00,weatherlink.com 1.10,2013-05-23 06:30:00,
2013-05-23 01:46:00,45.2,43.0,30.02,NNW,328,1.0,-999.0,92,-99.99,,,0.00,weatherlink.com 1.10,2013-05-23 06:46:00,
2013-05-23 02:01:00,45.2,43.0,30.03,NW,315,1.0,-999.0,92,-99.99,,,0.00,weatherlink.com 1.10,2013-05-23 07:01:00,
2013-05-23 02:16:00,45.1,43.0,30.04,NW,325,0.0,-999.0,91,-99.99,,,0.00,weatherlink.com 1.10,2013-05-23 07:16:00,
2013-05-23 02:31:00,45.0,43.0,30.05,NW,326,0.0,-999.0,91,-99.99,,,0.00,weatherlink.com 1.10,2013-05-23 07:31:00,
2013-05-23 02:46:00,44.8,42.0,30.05,NNW,341,0.0,-999.0,91,-99.99,,,0.00,weatherlink.com 1.10,2013-05-23 07:46:00,
2013-05-23 03:01:00,44.5,42.0,30.05,NE,49,0.0,-999.0,91,-99.99,,,0.00,weatherlink.com 1.10,2013-05-23 08:01:00,
2013-05-23 03:16:00,44.4,42.0,30.07,NE,47,0.0,-999.0,91,-99.99,,,0.00,weatherlink.com 1.10,2013-05-23 08:16:00,
2013-05-23 03:31:00,44.2,42.0,30.07,North,360,0.0,-999.0,91,-99.99,,,0.00,weatherlink.com 1.10,2013-05-23 08:31:00,
2013-05-23 03:46:00,44.1,41.0,30.08,NNE,28,0.0,-999.0,90,-99.99,,,0.00,weatherlink.com 1.10,2013-05-23 08:46:00,
2013-05-23 04:01:00,44.1,41.0,30.09,ENE,64,1.0,-999.0,89,-99.99,,,0.00,weatherlink.com 1.10,2013-05-23 09:01:00,
2013-05-23 04:16:00,44.0,40.0,30.10,ENE,57,0.0,-999.0,87,-99.99,,,0.00,weatherlink.com 1.10,2013-05-23 09:16:00,
2013-05-23 04:31:00,43.8,40.0,30.11,ENE,66,0.0,-999.0,86,-99.99,,,0.00,weatherlink.com 1.10,2013-05-23 09:31:00,
2013-05-23 04:46:00,43.6,39.0,30.12,East,82,1.0,-999.0,85,-99.99,,,0.00,weatherlink.com 1.10,2013-05-23 09:46:00,
2013-05-23 05:01:00,43.3,39.0,30.13,South,179,0.0,-999.0,85,-99.99,,,0.00,weatherlink.com 1.10,2013-05-23 10:01:00,
2013-05-23 05:16:00,43.1,39.0,30.14,East,92,0.0,-999.0,85,-99.99,,,0.00,weatherlink.com 1.10,2013-05-23 10:16:00,
2013-05-23 05:31:00,43.0,39.0,30.14,East,80,2.0,-999.0,84,-99.99,,,0.00,weatherlink.com 1.10,2013-05-23 10:31:00,
2013-05-23 05:46:00,42.7,38.0,30.15,East,83,0.0,-999.0,84,-99.99,,,0.00,weatherlink.com 1.10,2013-05-23 10:46:00,
2013-05-23 06:01:00,42.7,38.0,30.15,SW,230,1.0,-999.0,84,-99.99,,,0.00,weatherlink.com 1.10,2013-05-23 11:01:00,
2013-05-23 06:16:00,42.7,38.0,30.16,NE,48,0.0,-999.0,84,-99.99,,,0.00,weatherlink.com 1.10,2013-05-23 11:16:00,
2013-05-23 06:31:00,42.9,38.0,30.17,East,94,2.0,-999.0,83,-99.99,,,0.00,weatherlink.com 1.10,2013-05-23 11:31:00,
2013-05-23 06:46:00,43.2,38.0,30.18,NNW,330,0.0,-999.0,83,-99.99,,,0.00,weatherlink.com 1.10,2013-05-23 11:46:00,
2013-05-23 07:01:00,43.7,39.0,30.18,NNW,345,0.0,-999.0,82,-99.99,,,0.00,weatherlink.com 1.10,2013-05-23 12:01:00,
2013-05-23 07:16:00,44.3,39.0,30.20,East,90,2.0,-999.0,81,-99.99,,,0.00,weatherlink.com 1.10,2013-05-23 12:16:00,
2013-05-23 07:31:00,44.8,38.0,30.20,NW,304,1.0,-999.0,78,-99.99,,,0.00,weatherlink.com 1.10,2013-05-23 12:31:00,
2013-05-23 07:46:00,45.7,39.0,30.20,NE,46,1.0,-999.0,77,-99.99,,,0.00,weatherlink.com 1.10,2013-05-23 12:46:00,
2013-05-23 08:02:00,47.9,41.0,30.20,East,82,0.0,-999.0,76,-99.99,,,0.00,weatherlink.com 1.10,2013-05-23 13:02:00,
2013-05-23 08:17:00,49.6,41.0,30.21,NE,39,0.0,-999.0,71,-99.99,,,0.00,weatherlink.com 1.10,2013-05-23 13:17:00,
2013-05-23 08:32:00,51.2,42.0,30.21,East,81,0.0,-999.0,70,-99.99,,,0.00,weatherlink.com 1.10,2013-05-23 13:32:00,
2013-05-23 08:47:00,51.1,40.0,30.21,ENE,59,1.0,-999.0,67,-99.99,,,0.00,weatherlink.com 1.10,2013-05-23 13:47:00,
2013-05-23 09:02:00,51.1,40.0,30.22,NNE,17,0.0,-999.0,65,-99.99,,,0.00,weatherlink.com 1.10,2013-05-23 14:02:00,
2013-05-23 09:17:00,51.9,40.0,30.23,ENE,60,2.0,-999.0,63,-99.99,,,0.00,weatherlink.com 1.10,2013-05-23 14:17:00,
2013-05-23 09:32:00,53.2,41.0,30.22,ENE,61,1.0,-999.0,63,-99.99,,,0.00,weatherlink.com 1.10,2013-05-23 14:32:00,
2013-05-23 09:47:00,53.3,40.0,30.23,NNW,333,1.0,-999.0,61,-99.99,,,0.00,weatherlink.com 1.10,2013-05-23 14:47:00,
2013-05-23 10:02:00,54.4,42.0,30.23,ENE,58,1.0,-999.0,63,-99.99,,,0.00,weatherlink.com 1.10,2013-05-23 15:02:00,
2013-05-23 10:17:00,54.8,41.0,30.23,NE,54,2.0,-999.0,60,-99.99,,,0.00,weatherlink.com 1.10,2013-05-23 15:17:00,
2013-05-23 10:32:00,56.2,42.0,30.23,NE,50,5.0,-999.0,59,-99.99,,,0.00,weatherlink.com 1.10,2013-05-23 15:32:00,
2013-05-23 10:47:00,57.0,42.0,30.23,NE,53,1.0,-999.0,58,-99.99,,,0.00,weatherlink.com 1.10,2013-05-23 15:47:00,
2013-05-23 11:02:00,57.0,41.0,30.23,ENE,58,0.0,-999.0,55,-99.99,,,0.00,weatherlink.com 1.10,2013-05-23 16:02:00,
2013-05-23 11:17:00,57.1,41.0,30.24,WNW,299,3.0,-999.0,56,-99.99,,,0.00,weatherlink.com 1.10,2013-05-23 16:17:00,
2013-05-23 11:32:00,58.3,41.0,30.24,NE,56,3.0,-999.0,54,-99.99,,,0.00,weatherlink.com 1.10,2013-05-23 16:32:00,
2013-05-23 11:47:00,58.8,42.0,30.24,ESE,107,1.0,-999.0,54,-99.99,,,0.00,weatherlink.com 1.10,2013-05-23 16:47:00,
2013-05-23 12:02:00,59.6,40.0,30.24,NNE,22,0.0,-999.0,49,-99.99,,,0.00,weatherlink.com 1.10,2013-05-23 17:02:00,
2013-05-23 12:17:00,59.7,41.0,30.24,ENE,72,3.0,-999.0,51,-99.99,,,0.00,weatherlink.com 1.10,2013-05-23 17:17:00,
2013-05-23 12:32:00,60.0,39.0,30.24,SE,132,0.0,-999.0,46,-99.99,,,0.00,weatherlink.com 1.10,2013-05-23 17:32:00,
2013-05-23 12:47:00,60.3,42.0,30.24,NE,44,3.0,-999.0,52,-99.99,,,0.00,weatherlink.com 1.10,2013-05-23 17:47:00,
2013-05-23 13:02:00,61.4,42.0,30.24,ESE,118,3.0,-999.0,50,-99.99,,,0.00,weatherlink.com 1.10,2013-05-23 18:02:00,
2013-05-23 13:17:00,62.5,42.0,30.24,East,91,3.0,-999.0,47,-99.99,,,0.00,weatherlink.com 1.10,2013-05-23 18:17:00,
2013-05-23 13:32:00,63.6,42.0,30.24,East,79,4.0,-999.0,46,-99.99,,,0.00,weatherlink.com 1.10,2013-05-23 18:32:00,
2013-05-23 13:47:00,64.1,40.0,30.24,East,92,5.0,-999.0,41,-99.99,,,0.00,weatherlink.com 1.10,2013-05-23 18:47:00,
2013-05-23 14:02:00,64.7,40.0,30.23,ESE,110,0.0,-999.0,41,-99.99,,,0.00,weatherlink.com 1.10,2013-05-23 19:02:00,
2013-05-23 14:17:00,65.6,40.0,30.23,ENE,58,5.0,-999.0,39,-99.99,,,0.00,weatherlink.com 1.10,2013-05-23 19:17:00,
2013-05-23 14:33:00,66.1,42.0,30.23,NE,52,0.0,-999.0,42,-99.99,,,0.00,weatherlink.com 1.10,2013-05-23 19:33:00,
2013-05-23 14:48:00,67.2,39.0,30.23,North,360,0.0,-999.0,35,-99.99,,,0.00,weatherlink.com 1.10,2013-05-23 19:48:00,
2013-05-23 15:03:00,66.5,41.0,30.23,ENE,58,0.0,-999.0,40,-99.99,,,0.00,weatherlink.com 1.10,2013-05-23 20:03:00,
2013-05-23 15:18:00,66.6,40.0,30.23,NE,49,1.0,-999.0,38,-99.99,,,0.00,weatherlink.com 1.10,2013-05-23 20:18:00,
2013-05-23 15:33:00,68.2,41.0,30.23,ESE,102,1.0,-999.0,38,-99.99,,,0.00,weatherlink.com 1.10,2013-05-23 20:33:00,
2013-05-23 15:48:00,68.2,41.0,30.23,ENE,75,0.0,-999.0,37,-99.99,,,0.00,weatherlink.com 1.10,2013-05-23 20:48:00,
2013-05-23 16:03:00,67.9,41.0,30.23,ENE,60,4.0,-999.0,37,-99.99,,,0.00,weatherlink.com 1.10,2013-05-23 21:03:00,
2013-05-23 16:18:00,67.5,37.0,30.23,ESE,103,4.0,-999.0,33,-99.99,,,0.00,weatherlink.com 1.10,2013-05-23 21:18:00,
2013-05-23 16:33:00,67.1,39.0,30.23,ENE,61,2.0,-999.0,36,-99.99,,,0.00,weatherlink.com 1.10,2013-05-23 21:33:00,
2013-05-23 16:48:00,66.1,35.0,30.23,East,96,1.0,-999.0,32,-99.99,,,0.00,weatherlink.com 1.10,2013-05-23 21:48:00,
2013-05-23 17:03:00,65.4,38.0,30.23,ENE,65,1.0,-999.0,36,-99.99,,,0.00,weatherlink.com 1.10,2013-05-23 22:03:00,
2013-05-23 17:18:00,65.5,36.0,30.23,ENE,76,2.0,-999.0,34,-99.99,,,0.00,weatherlink.com 1.10,2013-05-23 22:18:00,
2013-05-23 17:33:00,65.6,36.0,30.23,ENE,57,1.0,-999.0,33,-99.99,,,0.00,weatherlink.com 1.10,2013-05-23 22:33:00,
2013-05-23 17:48:00,64.7,36.0,30.23,East,83,1.0,-999.0,35,-99.99,,,0.00,weatherlink.com 1.10,2013-05-23 22:48:00,
2013-05-23 18:03:00,63.9,36.0,30.23,ENE,65,2.0,-999.0,36,-99.99,,,0.00,weatherlink.com 1.10,2013-05-23 23:03:00,
2013-05-23 18:18:00,63.1,35.0,30.24,ESE,102,0.0,-999.0,35,-99.99,,,0.00,weatherlink.com 1.10,2013-05-23 23:18:00,
2013-05-23 18:33:00,62.6,36.0,30.24,ESE,115,3.0,-999.0,38,-99.99,,,0.00,weatherlink.com 1.10,2013-05-23 23:33:00,
2013-05-23 18:48:00,62.1,37.0,30.24,ENE,74,1.0,-999.0,39,-99.99,,,0.00,weatherlink.com 1.10,2013-05-23 23:48:00,
2013-05-23 19:03:00,61.9,36.0,30.24,NE,55,0.0,-999.0,39,-99.99,,,0.00,weatherlink.com 1.10,2013-05-24 00:03:00,
2013-05-23 19:18:00,62.1,37.0,30.24,ENE,61,0.0,-999.0,39,-99.99,,,0.00,weatherlink.com 1.10,2013-05-24 00:18:00,
2013-05-23 19:33:00,62.5,36.0,30.24,ENE,68,0.0,-999.0,38,-99.99,,,0.00,weatherlink.com 1.10,2013-05-24 00:33:00,
2013-05-23 19:48:00,62.4,36.0,30.24,East,101,0.0,-999.0,37,-99.99,,,0.00,weatherlink.com 1.10,2013-05-24 00:48:00,
2013-05-23 20:03:00,61.2,34.0,30.24,East,96,2.0,-999.0,36,-99.99,,,0.00,weatherlink.com 1.10,2013-05-24 01:03:00,
2013-05-23 20:18:00,59.6,35.0,30.24,East,98,0.0,-999.0,40,-99.99,,,0.00,weatherlink.com 1.10,2013-05-24 01:18:00,
2013-05-23 20:33:00,58.1,35.0,30.24,East,98,0.0,-999.0,42,-99.99,,,0.00,weatherlink.com 1.10,2013-05-24 01:33:00,
2013-05-23 20:48:00,56.7,35.0,30.25,East,98,0.0,-999.0,44,-99.99,,,0.00,weatherlink.com 1.10,2013-05-24 01:48:00,
2013-05-23 21:03:00,55.1,34.0,30.25,East,98,0.0,-999.0,46,-99.99,,,0.00,weatherlink.com 1.10,2013-05-24 02:03:00,
2013-05-23 21:18:00,53.4,34.0,30.25,East,98,0.0,-999.0,49,-99.99,,,0.00,weatherlink.com 1.10,2013-05-24 02:18:00,
2013-05-23 21:33:00,51.8,34.0,30.26,East,98,0.0,-999.0,52,-99.99,,,0.00,weatherlink.com 1.10,2013-05-24 02:33:00,
2013-05-23 21:48:00,50.3,34.0,30.27,East,98,0.0,-999.0,54,-99.99,,,0.00,weatherlink.com 1.10,2013-05-24 02:48:00,
2013-05-23 22:03:00,49.2,34.0,30.27,East,98,0.0,-999.0,57,-99.99,,,0.00,weatherlink.com 1.10,2013-05-24 03:03:00,
2013-05-23 22:18:00,48.6,34.0,30.27,East,98,0.0,-999.0,57,-99.99,,,0.00,weatherlink.com 1.10,2013-05-24 03:18:00,
2013-05-23 22:33:00,48.0,34.0,30.28,East,98,0.0,-999.0,59,-99.99,,,0.00,weatherlink.com 1.10,2013-05-24 03:33:00,
2013-05-23 22:48:00,47.1,34.0,30.29,East,98,0.0,-999.0,60,-99.99,,,0.00,weatherlink.com 1.10,2013-05-24 03:48:00,
2013-05-23 23:03:00,46.2,34.0,30.29,East,98,0.0,-999.0,63,-99.99,,,0.00,weatherlink.com 1.10,2013-05-24 04:03:00,
2013-05-23 23:18:00,45.4,35.0,30.30,East,98,0.0,-999.0,66,-99.99,,,0.00,weatherlink.com 1.10,2013-05-24 04:18:00,
2013-05-23 23:33:00,45.0,36.0,30.30,East,98,0.0,-999.0,70,-99.99,,,0.00,weatherlink.com 1.10,2013-05-24 04:33:00,
2013-05-23 23:48:00,44.6,35.0,30.30,East,98,0.0,-999.0,70,-99.99,,,0.00,weatherlink.com 1.10,2013-05-24 04:48:00,